Regional Weather Roundup
Issued by NWS Albany, NY

Home | Current Version | Previous Version | Text Only | Print | Product List | Glossary On
Versions: 1 2 3 4 5 6 7 8 9 10 11 12 13 14 15 16 17 18 19 20 21 22 23 24 25 26 27 28 29 30 31 32 33 34 35 36 37 38 39 40 41 42 43 44 45 46 47 48 49 50
000
ASUS41 KALY 250310
RWRALY

NEW YORK STATE HOURLY WEATHER ROUNDUP
NATIONAL WEATHER SERVICE ALBANY NY
1000 PM EST MON NOV 24 2014

NOTE: "FAIR" INDICATES FEW OR NO CLOUDS BELOW 12,000 FEET WITH NO
SIGNIFICANT WEATHER AND/OR NO OBSTRUCTIONS TO VISIBILITY.

NYZ032-033-038>043-046>054-057>066-NYZ062>081-250400-
EAST


CITY           SKY/WX    TMP DP  RH WIND       PRES   REMARKS
ALBANY         PTCLDY    63  52  67 S14G24    29.60R
GLENS FALLS    CLEAR     61  50  67 S9        29.54R
POUGHKEEPSIE   CLEAR     67  53  61 S12G24    29.67R
NEWBURGH       CLEAR     64  55  72 SW14G23   29.69R
MONTGOMERY     CLEAR     61  53  75 S10       29.67R
WHITE PLAINS   CLEAR     63  56  78 VRB6      29.72R
ISLIP          MOCLDY    58  56  93 SW10      29.73S
NEW YORK CITY  CLEAR     65  57  75 SW14G22   29.72R
CENTRAL PARK   CLEAR     66  56  70 SW7       29.75R
$$

NYZ005>009-017-018-044>046-055-056-250400-
CENTRAL


CITY           SKY/WX    TMP DP  RH WIND       PRES   REMARKS
FULTON         PTCLDY    50  41  71 W8        29.58R
SYRACUSE       PTCLDY    59  45  59 SW14      29.56R
ROME           CLEAR     58  46  64 W8        29.58R
ELMIRA         CLEAR     62  36  37 SW13G26   29.61R
BINGHAMTON     PTCLDY    58  49  72 SW12G20   29.62R
MONTICELLO     CLEAR     57  52  82 SW9       29.69R
$$

NYZ026>034-041>043-250400-
NORTH


CITY           SKY/WX    TMP DP  RH WIND       PRES   REMARKS
WATERTOWN      CLEAR     47  38  71 W12       29.57R
FORT DRUM      NOT AVBL
MASSENA        CLEAR     51  38  60 SW28G39   29.46R
SARANAC LAKE   PTCLDY    50 N/A N/A SW12      29.48R
PLATTSBURGH    NOT AVBL
$$

NYZ001>004-010>016-019>021-250400-
WEST


CITY           SKY/WX    TMP DP  RH WIND       PRES   REMARKS
NIAGARA FALLS  PTCLDY    43  32  65 SW31G48   29.59R
BUFFALO        MOCLDY    44  34  67 SW28G43   29.61R
DUNKIRK        CLOUDY    45  32  60 SW22G36   29.66R
JAMESTOWN      CLOUDY    41  28  60 SW20G31   29.68R
WELLSVILLE     CLEAR     49  33  54 SW21G35   29.64R
ROCHESTER      PTCLDY    45  37  73 W21G33    29.60R
PENN YAN       CLEAR     57  37  47 SW28G37   29.58R
$$

             KEY
       WCI = WIND CHILL INDEX
       VSB = VISIBILITY
       HX  = HEAT INDEX
$$



USA.gov is the U.S. government's official web portal to all federal, state and local government web resources and services.